TimeCST,TemperatureF,Dew PointF,Humidity,Sea Level PressureIn,VisibilityMPH,Wind Direction,Wind SpeedMPH,Gust SpeedMPH,PrecipitationIn,Events,Conditions,WindDirDegrees,DateUTC
12:15 AM,39.2,32.0,75,30.18,10.0,SSE,3.5,-,N/A,,Clear,160,2013-01-20 06:15:00
12:35 AM,35.6,30.2,81,30.19,10.0,Calm,Calm,-,N/A,,Clear,0,2013-01-20 06:35:00
12:55 AM,35.6,28.4,75,30.20,10.0,Calm,Calm,-,N/A,,Clear,0,2013-01-20 06:55:00
1:15 AM,37.4,30.2,75,30.20,10.0,NE,3.5,-,N/A,,Clear,40,2013-01-20 07:15:00
1:35 AM,37.4,30.2,75,30.21,10.0,NE,4.6,-,N/A,,Clear,40,2013-01-20 07:35:00
1:55 AM,39.2,30.2,70,30.21,10.0,NE,4.6,-,N/A,,Clear,50,2013-01-20 07:55:00
2:16 AM,39.2,30.2,70,30.22,10.0,ENE,4.6,-,N/A,,Clear,60,2013-01-20 08:16:00
2:35 AM,39.2,28.4,65,30.22,10.0,Calm,Calm,-,N/A,,Clear,0,2013-01-20 08:35:00
2:55 AM,37.4,30.2,75,30.22,10.0,NE,3.5,-,N/A,,Clear,50,2013-01-20 08:55:00
3:16 AM,37.4,28.4,70,30.22,10.0,NE,5.8,-,N/A,,Clear,50,2013-01-20 09:16:00
3:35 AM,39.2,28.4,65,30.22,10.0,NE,5.8,-,N/A,,Clear,40,2013-01-20 09:35:00
3:55 AM,39.2,26.6,61,30.22,10.0,NE,4.6,-,N/A,,Clear,40,2013-01-20 09:55:00
4:35 AM,37.4,26.6,65,30.22,10.0,NE,4.6,-,N/A,,Clear,40,2013-01-20 10:35:00
4:55 AM,37.4,26.6,65,30.22,10.0,NNE,5.8,-,N/A,,Clear,30,2013-01-20 10:55:00
5:15 AM,37.4,24.8,60,30.22,10.0,NE,5.8,-,N/A,,Clear,50,2013-01-20 11:15:00
5:36 AM,37.4,24.8,60,30.22,10.0,ENE,4.6,-,N/A,,Clear,60,2013-01-20 11:36:00
5:55 AM,33.8,23.0,65,30.22,10.0,East,3.5,-,N/A,,Clear,100,2013-01-20 11:55:00
6:15 AM,32.0,23.0,69,30.22,10.0,Calm,Calm,-,N/A,,Clear,0,2013-01-20 12:15:00
6:55 AM,28.4,19.4,69,30.23,10.0,Calm,Calm,-,N/A,,Clear,0,2013-01-20 12:55:00
7:15 AM,30.2,24.8,80,30.24,10.0,Calm,Calm,-,N/A,,Clear,0,2013-01-20 13:15:00
7:35 AM,30.2,24.8,80,30.24,10.0,ENE,4.6,-,N/A,,Clear,60,2013-01-20 13:35:00
7:55 AM,33.8,26.6,75,30.24,10.0,ENE,5.8,-,N/A,,Clear,60,2013-01-20 13:55:00
8:15 AM,37.4,28.4,70,30.24,10.0,ENE,6.9,-,N/A,,Clear,70,2013-01-20 14:15:00
8:35 AM,39.2,28.4,65,30.24,10.0,East,6.9,-,N/A,,Clear,80,2013-01-20 14:35:00
8:55 AM,41.0,28.4,61,30.24,10.0,ENE,6.9,-,N/A,,Clear,70,2013-01-20 14:55:00
9:15 AM,42.8,28.4,57,30.24,10.0,East,8.1,-,N/A,,Clear,90,2013-01-20 15:15:00
9:36 AM,44.6,28.4,53,30.24,10.0,East,10.4,-,N/A,,Clear,90,2013-01-20 15:36:00
9:55 AM,46.4,26.6,46,30.24,10.0,ESE,10.4,-,N/A,,Clear,110,2013-01-20 15:55:00
10:15 AM,48.2,26.6,43,30.25,10.0,ESE,11.5,-,N/A,,Clear,120,2013-01-20 16:15:00
10:35 AM,48.2,24.8,40,30.25,10.0,ESE,10.4,17.3,N/A,,Clear,110,2013-01-20 16:35:00
10:55 AM,50.0,26.6,40,30.24,10.0,ESE,10.4,-,N/A,,Clear,120,2013-01-20 16:55:00
11:15 AM,51.8,26.6,38,30.23,10.0,ESE,11.5,-,N/A,,Clear,110,2013-01-20 17:15:00
11:35 AM,51.8,26.6,38,30.22,10.0,ENE,6.9,-,N/A,,Clear,70,2013-01-20 17:35:00
11:55 AM,53.6,26.6,35,30.21,10.0,East,3.5,-,N/A,,Clear,90,2013-01-20 17:55:00
12:15 PM,53.6,26.6,35,30.19,10.0,SE,6.9,-,N/A,,Clear,130,2013-01-20 18:15:00
12:35 PM,55.4,28.4,36,30.18,10.0,SE,6.9,-,N/A,,Clear,130,2013-01-20 18:35:00
1:15 PM,55.4,28.4,36,30.16,10.0,South,4.6,-,N/A,,Clear,170,2013-01-20 19:15:00
1:35 PM,57.2,28.4,33,30.15,10.0,South,5.8,-,N/A,,Clear,190,2013-01-20 19:35:00
1:55 PM,57.2,28.4,33,30.13,10.0,South,4.6,-,N/A,,Clear,190,2013-01-20 19:55:00
2:16 PM,59.0,30.2,34,30.13,10.0,SSW,4.6,-,N/A,,Clear,210,2013-01-20 20:16:00
2:35 PM,60.8,30.2,31,30.12,10.0,SSW,6.9,-,N/A,,Clear,200,2013-01-20 20:35:00
3:35 PM,60.8,33.8,36,30.11,10.0,WSW,11.5,-,N/A,,Clear,240,2013-01-20 21:35:00
3:55 PM,60.8,33.8,36,30.11,10.0,WSW,8.1,-,N/A,,Clear,250,2013-01-20 21:55:00
4:15 PM,59.0,33.8,39,30.12,10.0,WSW,9.2,-,N/A,,Clear,250,2013-01-20 22:15:00
4:36 PM,57.2,33.8,41,30.12,10.0,WSW,8.1,-,N/A,,Clear,240,2013-01-20 22:36:00
4:55 PM,57.2,33.8,41,30.11,10.0,SW,5.8,-,N/A,,Clear,230,2013-01-20 22:55:00
5:15 PM,55.4,33.8,44,30.11,10.0,SW,4.6,-,N/A,,Clear,230,2013-01-20 23:15:00
5:35 PM,53.6,33.8,47,30.12,10.0,Calm,Calm,-,N/A,,Clear,0,2013-01-20 23:35:00
5:55 PM,48.2,32.0,54,30.12,10.0,SW,3.5,-,N/A,,Clear,220,2013-01-20 23:55:00
6:15 PM,46.4,33.8,62,30.13,10.0,NNW,8.1,-,N/A,,Clear,340,2013-01-21 00:15:00
6:35 PM,48.2,30.2,50,30.13,10.0,North,11.5,-,N/A,,Clear,10,2013-01-21 00:35:00
7:15 PM,46.4,26.6,46,30.15,10.0,NNE,11.5,-,N/A,,Clear,20,2013-01-21 01:15:00
7:35 PM,46.4,24.8,43,30.15,10.0,North,10.4,-,N/A,,Clear,10,2013-01-21 01:35:00
7:55 PM,44.6,23.0,43,30.16,10.0,NNE,11.5,-,N/A,,Clear,20,2013-01-21 01:55:00
8:15 PM,42.8,19.4,39,30.16,10.0,NNE,10.4,16.1,N/A,,Clear,30,2013-01-21 02:15:00
8:35 PM,-9999,-9999,N/A,30.16,10.0,North,12.7,-,N/A,,Clear,10,2013-01-21 02:35:00
8:55 PM,42.8,19.4,39,30.18,10.0,NNE,12.7,-,N/A,,Mostly Cloudy,20,2013-01-21 02:55:00
9:15 PM,41.0,17.6,39,30.18,10.0,NNE,10.4,-,N/A,,Partly Cloudy,20,2013-01-21 03:15:00
9:35 PM,39.2,17.6,42,30.19,10.0,North,11.5,-,N/A,,Partly Cloudy,10,2013-01-21 03:35:00
9:55 PM,39.2,17.6,42,30.20,10.0,North,15.0,19.6,N/A,,Mostly Cloudy,10,2013-01-21 03:55:00
10:35 PM,37.4,15.8,41,30.22,10.0,North,15.0,19.6,N/A,,Scattered Clouds,10,2013-01-21 04:35:00
10:55 PM,35.6,17.6,48,30.23,10.0,NNE,15.0,19.6,N/A,,Partly Cloudy,20,2013-01-21 04:55:00
11:35 PM,32.0,17.6,55,30.24,10.0,North,15.0,-,N/A,,Clear,10,2013-01-21 05:35:00
11:55 PM,30.2,17.6,60,30.25,10.0,NNE,16.1,-,N/A,,Clear,20,2013-01-21 05:55:00